Weather in Nuremberg

Germany     49˚26′50″N   11˚05′04″E
temp.,
°C
wind,
m/s
gust,
m/s
humid.,
%
clouds,
%
prec.,
mm/h
press.,
hPa
HPBL,
m
27 november, fri
fri2701:00+1˚sse22710 0.0 102369
04:00+1˚se22700 0.0 102366
07:00se22710 0.0 102350
10:00+3˚sse35600 0.0 1023206
13:00+6˚se23540 0.0 1021296
16:00+4˚se22646 0.0 102172
19:00+2˚se22704 0.0 102252
22:00+1˚ese12730 0.0 102229
28 november, sat
sat2801:00+1˚e12760 0.0 102128
04:00+1˚e11760 0.0 102121
07:00ene11770 0.0 102121
10:00+3˚ne11720 0.0 1022109
13:00+7˚ene13660 0.0 1021349
16:00+5˚ne26791 0.0 1021164
19:00+2˚ene38812 0.0 1022255
22:00ene378021 0.0 1023253
29 november, sun
sun2901:00−1˚ene278711 0.0 1023214
04:00−2˚ne26890 0.0 1023237
07:00−2˚ne25870 0.0 1024230
10:00+1˚ene36740 0.0 1025542
13:00+3˚ene36630 0.0 1024668
16:00+1˚ne25710 0.0 1024287
19:00−1˚ene13810 0.0 102681
22:00−1˚ne12850 0.0 102755
30 november, mon
mon3001:00−1˚ene12850 0.0 102766
04:00−2˚n11840 0.0 102744
07:00−2˚nne11870 0.0 102842
10:00ese01750 0.0 1028182
13:00+2˚ssw11640 0.0 1028451
16:00wsw00720 0.0 102721
19:00−1˚s11760 0.0 102821
22:00−1˚ssw22780 0.0 102781
1 december, tue
tue101:00−1˚ssw257618 0.0 1025215
04:00−1˚sw2572100 0.0 1024241
07:00−1˚ssw3596100 1.3 1022324
10:00sw3696100 2.1 1021404
13:00ssw3599100 4.1 1019228
16:00+1˚wsw2799100 1.5 1017240
19:00+2˚wsw3799100 2.1 1017255
22:00+2˚wsw3699100 1.4 1017278